Regional Weather Roundup
Issued by NWS

Home | Current Version | Previous Version | Text Only | Print | Product List | Glossary On
Versions: 1 2 3 4 5 6 7 8 9 10 11 12 13 14 15 16 17 18 19 20 21 22 23 24 25 26 27 28 29 30 31 32 33 34 35 36 37 38 39 40 41 42 43 44 45 46 47 48 49 50
000
ASUS43 KOAX 022202
RWRNE

WEATHER ROUNDUP FOR NEBRASKA
NATIONAL WEATHER SERVICE OMAHA NE
500 PM CDT SUN AUG 02 2015

NOTES: SATELLITE DATA IS BEING USED TO AUGMENT CLOUD COVER ABOVE
       12000 FEET.
       "FAIR" INDICATES FEW OR NO CLOUDS BELOW 12,000 FEET WITH NO
       SIGNIFICANT WEATHER AND/OR OBSTRUCTIONS TO VISIBILITY.

  * THESE STATIONS DO NOT REPORT WEATHER SUCH AS RAIN...SNOW OR FOG.

NEZ001>004-019>022-054>056-022300-
NEBRASKA PANHANDLE

CITY           SKY/WX    TMP DP  RH WIND       PRES   REMARKS
SCOTTSBLUFF    PTSUNNY   91  51  25 NE8       29.96F
ALLIANCE       PTSUNNY   92  49  22 W17       29.97F
CHADRON        SUNNY     93  57  29 NE14      29.95F HX  91
KIMBALL        PTSUNNY   83  49  30 S5        30.03F
SIDNEY         PTSUNNY   90  47  22 SE14      30.00F
$$

NEZ057>060-069>072-079>082-022300-
SOUTHWEST NEBRASKA

CITY           SKY/WX    TMP DP  RH WIND       PRES   REMARKS
NORTH PLATTE   PTSUNNY   78  55  44 SE12      29.93S
IMPERIAL       PTSUNNY   97  49  19 SE7       29.92F HX  94
LEXINGTON      PTSUNNY   88  48  24 W14G20    29.88F
MCCOOK         MOSUNNY   99  50  19 E9        29.88S HX  96
$$

NEZ005>010-023>029-035>040-094-022300-
NORTH CENTRAL NEBRASKA

CITY           SKY/WX    TMP DP  RH WIND       PRES   REMARKS
AINSWORTH      SUNNY     88  60  39 NE7       29.94S
BROKEN BOW     TSTM      78  61  55 N12       29.91R
ORD            PTSUNNY   86  69  56 NE7       29.85R HX  90
$$

NEZ041-046>049-061>064-073>077-083>087-022300-
SOUTH CENTRAL NEBRASKA

CITY           SKY/WX    TMP DP  RH WIND       PRES   REMARKS
GRAND ISLAND   PTSUNNY   89  70  53 S6        29.86S HX  94
AURORA         MOSUNNY   88  75  65 SW6       29.85F HX  97
HASTINGS       MOSUNNY   91  70  49 S3        29.86F HX  96
HEBRON         SUNNY     94  65  38 S7        29.84S HX  96
HOLDREGE       MOSUNNY   90  62  39 CALM      29.89R HX  91
KEARNEY *      PTSUNNY   88  66  48 S6        29.88R HX  90
YORK           MOSUNNY   88  77  70 SW3       29.85S HX 100
$$

NEZ011>018-030>034-042>045-022300-
NORTHEAST NEBRASKA

CITY           SKY/WX    TMP DP  RH WIND       PRES   REMARKS
NORFOLK        SUNNY     92  60  34 NE9       29.83F HX  91
ALBION         SUNNY     88  69  53 NE10      29.85S HX  93
BLAIR          MOSUNNY   90  74  58 NW7       29.81S HX  99
COLUMBUS *     CLOUDY    91  73  55 N3        29.81S HX 100
FREMONT        MOSUNNY   91  73  54 N7        29.82R HX  99
TEKAMAH        SUNNY     91  76  61 NW9       29.80S HX 103
WAYNE          SUNNY     88  66  48 N9        29.85S HX  91
$$

NEZ050>053-065>068-078-088>093-022300-
SOUTHEAST NEBRASKA

CITY           SKY/WX    TMP DP  RH WIND       PRES   REMARKS
LINCOLN        SUNNY     95  71  45 SW13      29.82F HX 102
OMAHA EPPLEY   MOSUNNY   95  72  47 W12       29.78R HX 103
BEATRICE       SUNNY     93  70  46 SW5       29.84S HX  99
FALLS CITY     SUNNY     91  74  57 SW8       29.83F HX 100
NEBRASKA CITY  SUNNY     90  69  50 SW9       29.83F HX  94
$$

NEZ044-045-051>053-067-022300-
OMAHA AREA

CITY           SKY/WX    TMP DP  RH WIND       PRES   REMARKS
OMAHA EPPLEY   MOSUNNY   95  72  47 W12       29.78R HX 103
BLAIR          MOSUNNY   90  74  58 NW7       29.81S HX  99
FREMONT        MOSUNNY   91  73  54 N7        29.82R HX  99
OFFUTT AFB     SUNNY     93  74  53 SW10      29.78F HX 102
WAHOO          FAIR      93  74  55 W9        29.81R HX 103
$$



USA.gov is the U.S. government's official web portal to all federal, state and local government web resources and services.